Location: ?
(35.4064°N, 139.3593°E)
Time: 14:15:19
(UTC+00:00)

CZ-2C R/B - Pass Details

Date: 18 April 2024
Orbit: 703 x 904 km, 98.2° (Epoch: 18 May)

Event Time Altitude Azimuth Distance (km) Brightness Sun altitude
Rises 16:41:27 0° 17° (NNE) 3,291 7.2 -35.5°
Reaches altitude 10° 16:43:47 10° 21° (NNE) 2,388 6.3 -35.2°
Enters shadow 16:47:17 40° 43° (NE) 1,195 4.3 -34.8°
